Wichita, KS

4:45 AM CDT on March 27, 2017 (GMT -0500)
Wichita Eisenhower National Airport

Weather History for KICT - June, 2012

Change the Weather History Date:

Wednesday, June 6, 2012

  Actual Average Record
Temperature  
Mean Temperature 77 °F 73 °F  
Max Temperature 86 °F 84 °F 102 °F (1933)
Min Temperature 67 °F 62 °F 46 °F (1998)
Degree Days  
Heating Degree Days 0 0  
Month to date heating degree days 10 3  
Since 1 June heating degree days 10 3  
Since 1 July heating degree days 3627 4591  
Cooling Degree Days 12 8  
Month to date cooling degree days 55 45  
Year to date cooling degree days 416 181  
Since 1 June cooling degree days 55 45  
Growing Degree Days 26 (Base 50)    
Moisture  
Dew Point 55 °F    
Average Humidity 52    
Maximum Humidity 68    
Minimum Humidity 36    
Precipitation  
Precipitation 0.00 in 0.19 in 2.20 in (1951)
Month to date precipitation 0.35 1.09  
Year to date precipitation 15.32 12.95  
Snow  
Snow 0.00 in 0.00 in 0.00 in (2007)
Month to date snowfall 0.0 0.0  
Since 1 June snowfall 0.0 0.0  
Since 1 July snowfall 3.0 14.9  
Snow Depth 0.00 in    
Sea Level Pressure  
Sea Level Pressure 29.90 in    
Wind  
Wind Speed 12 mph (ESE)    
Max Wind Speed 22 mph    
Max Gust Speed 26 mph    
Visibility 10 miles    
Events      
T = Trace of Precipitation, MM = Missing Value Source: NWS Daily Summary

Daily Weather History Graph

Daily Weather History Graph

Search for Another Location

Airport or City:

Trip Planner

Search our weather history database for the weather conditions in past years. The results will help you decide how hot, cold, wet, or windy it might be!

Date:

Astronomy

Jun. 06, 2012 Rise Set
Actual Time 6:08 AM CDT 8:49 PM CDT
Civil Twilight 5:37 AM CDT 9:19 PM CDT
Nautical Twilight 4:58 AM CDT 9:58 PM CDT
Astronomical Twilight 4:15 AM CDT 10:42 PM CDT
Moon 11:03 PM CDT (6/6) 8:29 AM CDT (6/6)
Length of Visible Light 15h 42m
Length of Day
14h 40m
Waning Gibbous, 93% of the Moon is Illuminated
Jun 6
Waning Gibbous
Jun 11
Last Quarter
Jun 19
New
Jun 26
First Quarter
Jul 3
Full

Hourly Weather History & Observations

Time (CDT) Temp. Heat Index Dew Point Humidity Pressure Visibility Wind Dir Wind Speed Gust Speed Precip Events Conditions
12:53 AM 72.0 °F - 55.9 °F 57% 29.86 in 10.0 mi East 8.1 mph - N/A   Mostly Cloudy
1:53 AM 70.0 °F - 55.0 °F 59% 29.86 in 10.0 mi ESE 10.4 mph - N/A   Scattered Clouds
2:53 AM 69.1 °F - 55.0 °F 61% 29.86 in 10.0 mi ESE 12.7 mph - N/A   Scattered Clouds
3:53 AM 69.1 °F - 54.0 °F 58% 29.85 in 10.0 mi East 10.4 mph - N/A   Scattered Clouds
4:53 AM 68.0 °F - 54.0 °F 61% 29.85 in 10.0 mi East 10.4 mph - N/A   Scattered Clouds
5:53 AM 66.9 °F - 55.0 °F 66% 29.87 in 10.0 mi East 8.1 mph - N/A   Mostly Cloudy
6:53 AM 68.0 °F - 55.0 °F 63% 29.89 in 10.0 mi ESE 10.4 mph - N/A   Mostly Cloudy
7:53 AM 70.0 °F - 55.0 °F 59% 29.90 in 10.0 mi ESE 12.7 mph - N/A   Mostly Cloudy
8:53 AM 73.0 °F - 55.9 °F 55% 29.91 in 10.0 mi SE 10.4 mph - N/A   Mostly Cloudy
9:53 AM 75.9 °F - 55.0 °F 48% 29.92 in 10.0 mi SE 15.0 mph 19.6 mph N/A   Mostly Cloudy
10:53 AM 80.1 °F 80.2 °F 55.9 °F 43% 29.91 in 10.0 mi SE 11.5 mph 23.0 mph N/A   Mostly Cloudy
11:53 AM 81.0 °F 80.7 °F 55.0 °F 41% 29.91 in 10.0 mi SE 10.4 mph - N/A   Overcast
12:53 PM 82.9 °F 82.0 °F 55.0 °F 38% 29.91 in 10.0 mi ESE 16.1 mph 24.2 mph N/A   Overcast
1:53 PM 84.9 °F 83.7 °F 55.9 °F 37% 29.90 in 10.0 mi SE 18.4 mph 23.0 mph N/A   Mostly Cloudy
2:53 PM 84.0 °F 82.9 °F 55.0 °F 37% 29.90 in 10.0 mi SE 19.6 mph - N/A   Overcast
3:53 PM 82.4 °F 81.4 °F 53.6 °F 37% 29.93 in 10.0 mi SE 18.4 mph 24.2 mph N/A   Mostly Cloudy
4:53 PM 82.4 °F 81.7 °F 55.4 °F 39% 29.90 in 10.0 mi SE 19.6 mph 24.2 mph N/A   Mostly Cloudy
5:53 PM 82.0 °F 81.3 °F 54.0 °F 38% 29.88 in 10.0 mi SE 16.1 mph 24.2 mph N/A   Mostly Cloudy
6:53 PM 81.0 °F - 52.0 °F 36% 29.88 in 10.0 mi ESE 13.8 mph - N/A   Overcast
7:53 PM 79.0 °F - 54.0 °F 42% 29.90 in 10.0 mi SE 8.1 mph - N/A   Mostly Cloudy
8:53 PM 77.0 °F - 55.0 °F 47% 29.91 in 10.0 mi ESE 9.2 mph - N/A   Mostly Cloudy
9:53 PM 75.0 °F - 55.9 °F 51% 29.93 in 10.0 mi East 6.9 mph - N/A   Mostly Cloudy
10:53 PM 73.9 °F - 55.9 °F 53% 29.95 in 10.0 mi ESE 6.9 mph - N/A   Mostly Cloudy
11:53 PM 71.1 °F - 55.9 °F 59% 29.97 in 10.0 mi SE 6.9 mph - N/A   Mostly Cloudy